Flag for U.S.A. Weather past 2 weeks in Portland, Maine, U.S.A.

Now
62 °F

Passing clouds.


Feels Like: 62 °F
Forecast: 62 / 72 °F
Wind: 7 mph from Southwest

Location: Portland - Portland International Jetport

Current Time: Jul 29, 2014 at 6:46:01 AM

Latest Report: Jul 29, 2014 at 5:51 AM


Visibility: 10 mi

Pressure: 29.61 "Hg

Humidity: 93%

Dew point: 60 °F

Location of PortlandLocation

Historic Weather in Portland — Graph

°F

Portland temperature yesterday

Maximum temperature yesterday: 73 °F (at 4:51 PM)
Minimum temperature yesterday: 64 °F (at 8:51 AM)
Average temperature yesterday: 67 °F

Past Weeks' High & Low Weather Summary

 TemperatureHumidityPressure
High86 °F (Jul 23, 1:51 PM)100% (Jul 16, 12:49 AM)30.28 "Hg (Jul 16, 12:49 AM)
Low55 °F (Jul 21, 4:51 AM)43% (Jul 18, 11:51 AM)29.46 "Hg (Jul 28, 5:51 PM)
Average69 °F80%29.92 "Hg
* Reported Jul 14 5:51 AM — Jul 29 5:51 AM, Portland, Weather by CustomWeather, © 2014

Note: Actual official high and low records may vary slightly from our data, if they occured in-between our weather recording intervals... More about our weather records

Advertising

Portland weather history for previous 24 hours

 ConditionsComfort  
Time TempWeatherWind HumidityBarometerVisibility
5:51 AM
Jul 29
62 °FPassing clouds.7 mph93%29.61 "Hg10 mi
4:51 AM62 °FPartly cloudy.6 mph93%29.59 "Hg10 mi
3:51 AM63 °FClear.7 mph90%29.55 "Hg10 mi
2:51 AM63 °FClear.5 mph97%29.52 "Hg10 mi
1:51 AM64 °FClear.6 mph94%29.51 "Hg10 mi
12:51 AM64 °FClear.6 mph94%29.49 "Hg10 mi
11:51 PM
Jul 28
64 °FClear.3 mph97%29.50 "Hg10 mi
10:51 PM65 °FPassing clouds.10 mph97%29.49 "Hg10 mi
9:51 PM65 °FPassing clouds.7 mph94%29.47 "Hg10 mi
8:51 PM68 °FMostly cloudy.5 mph93%29.46 "Hg8 mi
7:51 PM69 °FStrong thunderstorms. Low clouds.5 mph93%29.46 "Hg1 mi
6:51 PM68 °FFog.8 mph93%29.46 "Hg3 mi
5:51 PM71 °FPartly sunny.12 mph87%29.46 "Hg10 mi
4:51 PM73 °FScattered clouds.12 mph81%29.47 "Hg10 mi
3:58 PM72 °FPassing clouds.12 mph81%29.49 "Hg9 mi
2:51 PM70 °FFog.13 mph93%29.52 "Hg3 mi
1:51 PM69 °FFog.10 mph93%29.53 "Hg1 mi
12:51 PM68 °FLight rain. Fog.14 mph96%29.55 "Hg1 mi
11:51 AM67 °FRain. Fog.6 mph97%29.58 "Hg1 mi
11:01 AM66 °FRain. Fog.6 mph96%29.61 "Hg1 mi
9:51 AM65 °FFog.8 mph100%29.59 "Hg0 mi
8:51 AM64 °FFog.7 mph100%29.64 "Hg1 mi
7:51 AM65 °FFog.3 mph97%29.65 "Hg1 mi
6:51 AM66 °FFog.5 mph96%29.65 "Hg1 mi
Weather by CustomWeather, © 2014

See weather overviewHow to use our weather pages